Hourly Data Report for October 06, 2017

All times are specified in Local Standard Time (LST). Add 1 hour to adjust for Daylight Saving Time where and when it is observed.

SAULT STE MARIE A
ONTARIO

46°29'06.000" N
84°30'35.000" W
192.00 m
6057591
71260
YAM

Download Data

Hourly Data (October 2017)
Hourly Data Report for October 6, 2017
Temp Definition
°C
Dew Point Temp Definition
°C
Rel Hum Definition
%
Wind Dir Definition
10's deg

Wind Spd Definition
km/h
Visibility Definition
km
Stn Press Definition
kPa
Hmdx Definition


Wind Chill Definition


Weather Definition


TIME
00:00 Legend Double Dagger 7.0 6.3 95 36 2 24.1 99.47     LegendNANA
01:00 Legend Double Dagger 5.2 4.8 97 4 4 24.1 99.50     Mainly Clear
02:00 Legend Double Dagger 4.4 4.0 97 5 4 24.1 99.50     LegendNANA
03:00 Legend Double Dagger 5.3 4.9 97 2 3 24.1 99.49     LegendNANA
04:00 Legend Double Dagger 3.8 3.3 97 36 1 24.1 99.50     Mainly Clear
05:00 Legend Double Dagger 3.1 2.9 98 5 5 24.1 99.51     LegendNANA
06:00 Legend Double Dagger 1.9 1.7 98 7 6 24.1 99.54     LegendNANA
07:00 Legend Double Dagger 1.1 0.8 98 2 5 16.1 99.54     Mainly Clear
08:00 Legend Double Dagger 5.2 5.0 99 7 7 0.8 99.57     Fog
09:00 Legend Double Dagger 9.0 8.8 99 8 4 16.1 99.58     LegendNANA
10:00 Legend Double Dagger 12.3 6.6 68 16 3 24.1 99.58     Clear
11:00 Legend Double Dagger 14.3 6.3 58 19 10 24.1 99.57     LegendNANA
12:00 Legend Double Dagger 15.6 5.5 51 25 10 24.1 99.54     LegendNANA
13:00 Legend Double Dagger 16.4 5.6 48 7 4 24.1 99.45     Mainly Clear
14:00 Legend Double Dagger 17.1 6.0 47 9 8 24.1 99.39     LegendNANA
15:00 Legend Double Dagger 17.1 5.3 45 9 3 24.1 99.30     LegendNANA
16:00 Legend Double Dagger 17.4 5.9 46 18 5 24.1 99.21     Mainly Clear
17:00 Legend Double Dagger 16.1 6.9 54 10 6 24.1 99.18     LegendNANA
18:00 Legend Double Dagger 13.0 7.5 69 10 7 24.1 99.12     LegendNANA
19:00 Legend Double Dagger 12.5 8.1 74 12 8 24.1 99.11     Mostly Cloudy
20:00 Legend Double Dagger 11.8 8.0 78 13 10 24.1 99.05     LegendNANA
21:00 Legend Double Dagger 11.9 8.9 82 12 10 24.1 99.02     LegendNANA
22:00 Legend Double Dagger 12.3 9.9 85 11 9 24.1 99.00     Cloudy
23:00 Legend Double Dagger 12.4 10.6 89 9 14 24.1 98.90     LegendNANA

Notes on Data Quality.

Legend

  • E = Estimated
  • M = Missing
  • NA = Not Available
  • ‡ = Partner data that is not subject to review by the National Climate Archives
Date modified: